Weather History for Orange, MA

Change the Weather History Date:

Wednesday, May 16, 2012

  Actual Average Record
Temperature  
Mean Temperature 66 °F -  
Max Temperature 73 °F 65 °F 82 °F (1998)
Min Temperature 59 °F 40 °F 30 °F (2000)
Cooling Degree Days 1    
Growing Degree Days 16 (Base 50)    
Moisture  
Dew Point 61 °F    
Average Humidity 90    
Maximum Humidity 100    
Minimum Humidity 71    
Precipitation  
Precipitation 0.38 in - - ()
Sea Level Pressure  
Sea Level Pressure 29.89 in    
Wind  
Wind Speed 3 mph (South)    
Max Wind Speed 12 mph    
Max Gust Speed -    
Visibility 9 miles    
Events Rain , Thunderstorm    
Averages and records for this station are not official NWS values.
T = Trace of Precipitation, MM = Missing Value Source: NWS Daily Summary

Daily Weather History Graph

Daily Weather History Graph

Search for Another Location

Airport:

Trip Planner

Search our weather history database for the weather conditions in past years. The results will help you decide how hot, cold, wet, or windy it might be!

Date:

Astronomy

May. 16, 2012 Rise Set
Actual Time 5:25 AM EDT 8:06 PM EDT
Civil Twilight 4:53 AM EDT 8:38 PM EDT
Nautical Twilight 4:12 AM EDT 9:19 PM EDT
Astronomical Twilight 3:26 AM EDT 10:06 PM EDT
Moon 2:58 AM EDT (5/16) 4:14 PM EDT (5/16)
Length of Visible Light 15h 45m
Length of Day
14h 40m
Waning Crescent, 16% of the Moon is Illuminated
May 16
Waning Crescent
May 20
New
May 28
First Quarter
Jun 4
Full
Jun 11
Last Quarter

Hourly Weather History & Observations

Time (EDT) Temp. Dew Point Humidity Pressure Visibility Wind Dir Wind Speed Gust Speed Precip Events Conditions
12:32 AM 60.8 °F 60.8 °F 100% 29.96 in 10.0 mi Calm Calm - N/A   Overcast
12:52 AM 60.1 °F 60.1 °F 100% 29.96 in 10.0 mi Calm Calm - N/A   Overcast
1:20 AM 60.8 °F 60.8 °F 100% 29.94 in 10.0 mi Calm Calm - N/A   Overcast
1:36 AM 60.8 °F 60.8 °F 100% 29.94 in 10.0 mi Calm Calm - N/A   Overcast
1:52 AM 60.1 °F 60.1 °F 100% 29.94 in 10.0 mi Calm Calm - N/A   Overcast
2:08 AM 60.8 °F 60.8 °F 100% 29.94 in 10.0 mi Calm Calm - N/A   Overcast
2:52 AM 60.1 °F 59.0 °F 96% 29.92 in 10.0 mi Calm Calm - N/A   Mostly Cloudy
3:06 AM 59.0 °F 59.0 °F 100% 29.92 in 9.0 mi Calm Calm - N/A   Mostly Cloudy
3:52 AM 60.1 °F 59.0 °F 96% 29.92 in 10.0 mi Calm Calm - N/A   Overcast
4:52 AM 59.0 °F 59.0 °F 100% 29.92 in 7.0 mi Calm Calm - N/A   Overcast
5:52 AM 59.0 °F 59.0 °F 100% 29.92 in 10.0 mi Calm Calm - N/A   Overcast
6:52 AM 60.1 °F 59.0 °F 96% 29.93 in 9.0 mi Calm Calm - 0.01 in   Overcast
6:59 AM 60.8 °F 59.0 °F 94% 29.92 in 10.0 mi Calm Calm - N/A   Overcast
7:52 AM 61.0 °F 59.0 °F 93% 29.93 in 10.0 mi Calm Calm - 0.01 in   Overcast
8:06 AM 60.8 °F 59.0 °F 94% 29.91 in 10.0 mi Calm Calm - N/A   Overcast
8:18 AM 60.8 °F 59.0 °F 94% 29.91 in 10.0 mi Calm Calm - N/A   Overcast
8:52 AM 61.0 °F 59.0 °F 93% 29.92 in 10.0 mi Calm Calm - N/A   Overcast
9:52 AM 63.0 °F 60.1 °F 90% 29.91 in 10.0 mi SE 3.5 mph - N/A   Overcast
10:02 AM 62.6 °F 60.8 °F 94% 29.91 in 10.0 mi SSE 3.5 mph - N/A   Overcast
10:32 AM 62.6 °F 60.8 °F 94% 29.90 in 10.0 mi SSE 4.6 mph - N/A   Overcast
10:52 AM 64.0 °F 61.0 °F 90% 29.90 in 10.0 mi South 4.6 mph - N/A   Overcast
11:34 AM 64.4 °F 60.8 °F 88% 29.89 in 10.0 mi SW 3.5 mph - N/A   Overcast
11:52 AM 64.9 °F 61.0 °F 87% 29.90 in 10.0 mi SSW 6.9 mph - N/A   Overcast
12:52 PM 66.9 °F 62.1 °F 84% 29.89 in 10.0 mi South 8.1 mph - N/A   Overcast
1:30 PM 66.2 °F 62.6 °F 88% 29.88 in 10.0 mi South 8.1 mph - N/A   Overcast
1:52 PM 64.9 °F 63.0 °F 93% 29.88 in 6.0 mi South 6.9 mph - 0.00 in Rain Light Rain
2:16 PM 66.2 °F 62.6 °F 88% 29.87 in 10.0 mi South 9.2 mph - 0.00 in   Mostly Cloudy
2:52 PM 69.1 °F 62.1 °F 78% 29.86 in 10.0 mi South 10.4 mph - 0.00 in   Mostly Cloudy
3:39 PM 69.8 °F 62.6 °F 78% 29.83 in 10.0 mi SSE 6.9 mph - N/A   Mostly Cloudy
3:52 PM 71.1 °F 62.1 °F 73% 29.82 in 10.0 mi SSE 9.2 mph - N/A   Mostly Cloudy
4:10 PM 71.6 °F 62.6 °F 73% 29.82 in 10.0 mi South 10.4 mph - N/A   Partly Cloudy
4:52 PM 71.1 °F 62.1 °F 73% 29.80 in 10.0 mi South 11.5 mph - N/A   Clear
5:52 PM 73.0 °F 63.0 °F 71% 29.80 in 10.0 mi South 10.4 mph - N/A   Scattered Clouds
6:52 PM 70.0 °F 62.1 °F 76% 29.80 in 10.0 mi South 10.4 mph - N/A   Clear
7:52 PM 68.0 °F 62.1 °F 81% 29.80 in 10.0 mi South 10.4 mph - N/A   Clear
8:31 PM 66.2 °F 62.6 °F 88% 29.81 in 10.0 mi South 9.2 mph - N/A Thunderstorm Clear
8:52 PM 66.0 °F 62.1 °F 87% 29.82 in 10.0 mi WNW 8.1 mph - N/A Thunderstorm Mostly Cloudy
8:59 PM 66.2 °F 62.6 °F 88% 29.82 in 10.0 mi Calm Calm - N/A Thunderstorm Overcast
9:52 PM 62.1 °F 57.9 °F 86% 29.88 in 5.0 mi West 11.5 mph - 0.05 in Rain , Thunderstorm Heavy Thunderstorms and Rain
9:56 PM 62.6 °F 59.0 °F 88% 29.88 in 2.5 mi West 11.5 mph - 0.10 in Rain , Thunderstorm Heavy Thunderstorms and Rain
9:58 PM 62.6 °F 59.0 °F 88% 29.88 in 1.8 mi West 10.4 mph - 0.15 in Rain , Thunderstorm Heavy Thunderstorms and Rain
10:10 PM 60.8 °F 60.8 °F 100% 29.86 in 2.5 mi Variable 3.5 mph - 0.31 in Rain , Thunderstorm Light Thunderstorms and Rain
10:17 PM 60.8 °F 60.8 °F 100% 29.86 in 9.0 mi Calm Calm - 0.31 in Rain , Thunderstorm Light Thunderstorms and Rain
10:52 PM 61.0 °F 57.9 °F 90% 29.88 in 10.0 mi West 5.8 mph - 0.31 in Rain Light Rain